Date,Time,Wetness (Wet Dry or Ice),Wind Speed (m/s),Temperature (C),Humidity (%),Pressure (mb),Radiation (W/m^2)
2019-05-07,01:30:00,DRY,0.93,10.70,17.0,776.00,1.1
2019-05-07,01:35:00,DRY,1.35,10.70,17.0,776.00,1.9
2019-05-07,01:40:00,DRY,1.23,10.70,17.0,776.00,1.2
2019-05-07,01:45:00,DRY,0.40,10.65,17.0,776.00,1.2
2019-05-07,01:50:00,DRY,0.53,10.53,17.0,776.00,1.3
2019-05-07,01:55:00,DRY,0.85,10.45,17.0,776.00,0.5
2019-05-07,02:00:00,DRY,0.80,10.27,17.7,776.00,0.7
2019-05-07,02:05:00,DRY,0.65,10.20,18.0,776.00,1.6
2019-05-07,02:10:00,DRY,1.23,10.10,18.0,776.00,1.5
2019-05-07,02:15:00,DRY,1.20,10.20,19.0,776.00,1.7
2019-05-07,02:20:00,DRY,1.33,10.57,18.7,776.00,1.7
2019-05-07,02:25:00,DRY,0.75,10.55,17.5,776.00,0.8
2019-05-07,02:30:00,DRY,0.43,10.20,18.3,776.00,1.6
2019-05-07,02:35:00,DRY,0.55,10.00,19.0,776.00,1.1
2019-05-07,02:40:00,DRY,1.03,9.87,20.3,776.00,1.0
2019-05-07,02:45:00,DRY,1.35,9.75,21.0,776.00,1.6
2019-05-07,02:50:00,DRY,1.07,9.70,21.0,776.00,1.0
2019-05-07,02:55:00,DRY,1.30,9.55,21.0,776.00,2.2
2019-05-07,03:00:00,DRY,0.97,9.40,21.0,776.00,1.1
2019-05-07,03:05:00,DRY,1.65,9.45,21.0,776.00,0.7
2019-05-07,03:10:00,DRY,1.43,9.63,21.0,776.00,2.1
2019-05-07,03:15:00,DRY,2.50,10.20,19.0,776.00,1.1
2019-05-07,03:20:00,DRY,1.90,10.53,19.7,776.00,2.0
2019-05-07,03:25:00,DRY,0.85,10.35,20.0,775.50,0.9
2019-05-07,03:30:00,DRY,1.17,10.17,20.0,776.00,1.6
2019-05-07,03:35:00,DRY,1.70,10.20,20.0,776.00,0.8
2019-05-07,03:40:00,DRY,1.63,10.20,20.0,776.00,0.8
2019-05-07,03:45:00,DRY,1.15,10.25,20.0,775.50,1.1
2019-05-07,03:50:00,DRY,1.80,10.27,20.0,775.67,1.4
2019-05-07,03:55:00,DRY,1.65,10.40,19.5,775.00,0.5
2019-05-07,04:00:00,DRY,1.70,10.37,19.7,775.67,1.4
2019-05-07,04:05:00,DRY,1.75,10.50,19.5,775.50,1.1
2019-05-07,04:10:00,DRY,1.10,10.37,20.0,775.00,1.6
2019-05-07,04:15:00,DRY,0.65,10.35,18.5,775.00,1.1
2019-05-07,04:20:00,DRY,1.50,10.70,15.3,775.00,0.4
2019-05-07,04:25:00,DRY,2.15,10.85,14.0,775.00,0.8
2019-05-07,04:30:00,DRY,1.63,10.87,15.7,775.00,1.3
2019-05-07,04:35:00,DRY,2.10,10.85,16.0,775.00,1.4
2019-05-07,04:40:00,DRY,1.10,10.93,14.0,775.00,0.7
2019-05-07,04:45:00,DRY,0.80,10.80,14.0,775.00,1.6
2019-05-07,04:50:00,DRY,1.03,10.80,10.3,775.00,2.0
2019-05-07,04:55:00,DRY,1.50,11.25,8.0,775.00,1.1
2019-05-07,05:00:00,DRY,1.50,11.33,7.0,775.00,1.3
2019-05-07,05:05:00,DRY,0.55,11.35,7.5,775.00,1.2
2019-05-07,05:10:00,DRY,1.63,11.20,7.7,775.00,1.7
2019-05-07,05:15:00,DRY,0.95,11.45,8.0,775.00,2.3
2019-05-07,05:20:00,DRY,1.27,11.43,7.0,775.00,0.8
2019-05-07,05:25:00,DRY,0.65,11.40,6.5,775.00,0.9
2019-05-07,05:30:00,DRY,0.73,11.13,7.0,775.00,1.1
2019-05-07,05:35:00,DRY,0.55,10.85,7.0,775.00,0.9
2019-05-07,05:40:00,DRY,0.97,10.70,7.0,775.00,1.1
2019-05-07,05:45:00,DRY,0.95,10.80,7.0,775.00,1.2
2019-05-07,05:50:00,DRY,0.63,10.80,7.0,775.00,1.3
2019-05-07,05:55:00,DRY,0.80,10.80,7.0,775.00,1.3
2019-05-07,06:00:00,DRY,0.90,10.53,7.7,775.00,1.1
2019-05-07,06:05:00,DRY,0.85,10.50,7.0,775.00,1.2
2019-05-07,06:10:00,DRY,1.63,10.90,7.0,775.00,1.9
2019-05-07,06:15:00,DRY,1.15,11.00,7.0,775.00,2.5
2019-05-07,06:20:00,DRY,1.23,11.07,7.0,775.00,4.5
2019-05-07,06:25:00,DRY,1.50,11.00,7.0,775.00,7.0
2019-05-07,06:30:00,DRY,0.80,10.97,7.0,775.00,12.7
2019-05-07,06:35:00,DRY,0.85,10.65,7.0,775.00,29.6
2019-05-07,06:40:00,DRY,0.67,10.80,6.7,775.00,47.9
2019-05-07,06:45:00,DRY,1.65,11.50,6.5,775.00,68.4
2019-05-07,06:50:00,DRY,1.10,10.93,7.0,776.00,94.0
2019-05-07,06:55:00,DRY,0.80,11.05,7.0,776.00,116.1
2019-05-07,07:00:00,DRY,1.03,11.30,7.0,776.00,134.9
2019-05-07,07:05:00,DRY,0.95,11.35,7.0,776.00,153.8
2019-05-07,07:10:00,DRY,0.87,11.53,7.0,775.33,175.4
2019-05-07,07:15:00,DRY,0.55,11.95,7.0,776.00,195.8
2019-05-07,07:20:00,DRY,0.73,12.13,7.0,775.67,217.2
2019-05-07,07:25:00,DRY,0.65,12.35,7.0,775.00,239.3
2019-05-07,07:30:00,DRY,0.57,12.60,6.0,776.00,262.2
2019-05-07,07:35:00,DRY,0.30,13.35,5.0,776.00,284.2
2019-05-07,07:40:00,DRY,1.33,13.40,6.7,776.00,306.0
2019-05-07,07:45:00,DRY,1.35,13.10,6.5,776.00,328.1
2019-05-07,07:50:00,DRY,0.37,13.20,6.0,776.00,351.4
2019-05-07,07:55:00,DRY,1.00,13.60,6.0,776.00,373.5
2019-05-07,08:00:00,DRY,1.10,13.57,5.0,776.00,396.3
2019-05-07,08:05:00,DRY,0.75,13.35,5.5,776.00,418.1
2019-05-07,08:10:00,DRY,0.73,13.70,6.0,776.00,439.7
2019-05-07,08:15:00,DRY,1.45,13.90,6.5,775.50,462.5
2019-05-07,08:20:00,DRY,0.57,14.03,6.0,776.00,484.6
2019-05-07,08:25:00,DRY,0.60,14.45,5.5,776.00,505.6
2019-05-07,08:30:00,DRY,0.43,14.60,6.0,776.00,527.2
2019-05-07,08:35:00,DRY,0.40,14.65,6.0,776.00,548.5
2019-05-07,08:40:00,DRY,0.53,15.10,7.0,776.00,569.7
2019-05-07,08:45:00,DRY,0.70,15.10,6.5,775.50,589.0
2019-05-07,08:50:00,DRY,1.13,15.40,9.3,776.00,611.1
2019-05-07,08:55:00,DRY,1.50,15.35,9.5,775.50,630.8
2019-05-07,09:00:00,DRY,0.73,15.53,7.3,775.33,649.5
2019-05-07,09:05:00,DRY,1.00,15.40,8.0,776.00,670.0
2019-05-07,09:10:00,DRY,1.37,15.23,12.7,776.00,688.1
2019-05-07,09:15:00,DRY,1.55,15.35,13.5,776.00,706.2
2019-05-07,09:20:00,DRY,0.97,15.23,12.3,776.00,724.7
2019-05-07,09:25:00,DRY,0.80,15.75,10.5,776.00,742.9
2019-05-07,09:30:00,DRY,0.87,16.03,12.0,776.00,761.5
2019-05-07,09:35:00,DRY,0.60,15.75,9.5,776.00,775.2
2019-05-07,09:40:00,DRY,1.43,15.97,11.0,776.00,796.1
2019-05-07,09:45:00,DRY,1.50,15.75,11.5,776.00,812.5
2019-05-07,09:50:00,DRY,1.80,15.57,9.0,776.00,829.0
2019-05-07,09:55:00,DRY,0.85,15.80,11.5,776.00,845.4
2019-05-07,10:00:00,DRY,1.37,16.00,12.3,776.00,861.8
2019-05-07,10:05:00,DRY,1.20,15.85,12.0,776.00,877.4
2019-05-07,10:10:00,DRY,1.20,16.30,14.0,776.00,893.3
2019-05-07,10:15:00,DRY,1.80,16.65,14.0,776.00,905.1
2019-05-07,10:20:00,DRY,1.43,16.37,15.0,776.00,920.4
2019-05-07,10:25:00,DRY,1.20,16.40,14.0,776.00,933.4
2019-05-07,10:30:00,DRY,1.80,16.53,17.3,776.00,948.8
2019-05-07,10:35:00,DRY,1.80,16.85,18.5,776.00,958.2
2019-05-07,10:40:00,DRY,1.43,16.30,21.3,776.00,970.2
2019-05-07,10:45:00,DRY,1.25,15.90,20.0,776.00,985.5
2019-05-07,10:50:00,DRY,1.63,16.37,23.7,776.00,995.7
2019-05-07,10:55:00,DRY,2.05,16.20,25.0,776.00,1005.8
2019-05-07,11:00:00,DRY,1.57,15.97,26.0,776.00,1017.3
2019-05-07,11:05:00,DRY,1.10,15.50,23.0,776.00,1031.0
2019-05-07,11:10:00,DRY,1.47,15.87,26.3,776.00,1036.9
2019-05-07,11:15:00,DRY,1.25,16.50,23.5,776.00,1046.1
2019-05-07,11:20:00,DRY,1.20,16.43,23.7,776.00,1057.3
2019-05-07,11:25:00,DRY,1.15,15.60,27.5,776.00,1065.9
2019-05-07,11:30:00,DRY,1.43,15.57,29.3,776.00,1072.8
2019-05-07,11:35:00,DRY,0.85,15.75,26.0,776.00,1081.3
2019-05-07,11:40:00,DRY,1.23,15.33,24.7,776.00,1090.0
2019-05-07,11:45:00,DRY,1.50,15.75,28.5,776.00,1095.2
2019-05-07,11:50:00,DRY,2.30,15.67,29.7,776.00,1100.2
2019-05-07,11:55:00,DRY,1.45,14.30,33.0,776.00,1105.4
2019-05-07,12:00:00,DRY,1.73,14.63,33.0,776.00,1111.5
2019-05-07,12:05:00,DRY,2.25,15.00,33.0,776.00,1113.8
2019-05-07,12:10:00,DRY,1.80,14.83,34.7,776.00,1119.7
2019-05-07,12:15:00,DRY,1.10,14.70,35.5,776.00,1126.5
2019-05-07,12:20:00,DRY,1.00,15.70,29.7,776.00,1131.3
2019-05-07,12:25:00,DRY,2.10,16.05,30.5,776.00,1130.4
2019-05-07,12:30:00,DRY,1.07,16.37,31.0,776.00,1139.7
2019-05-07,12:35:00,DRY,0.65,16.40,20.5,776.00,1141.8
2019-05-07,12:40:00,DRY,1.87,16.77,23.7,776.00,1146.3
2019-05-07,12:45:00,DRY,1.25,16.75,27.0,776.00,1143.8
2019-05-07,12:50:00,DRY,2.50,17.03,24.3,776.00,1148.8
2019-05-07,12:55:00,DRY,2.50,16.85,33.0,776.00,1149.0
2019-05-07,13:00:00,DRY,2.23,15.90,34.3,776.00,1148.3
2019-05-07,13:05:00,DRY,2.00,16.10,35.0,776.00,1149.7
2019-05-07,13:10:00,DRY,1.97,16.27,30.7,776.00,1146.2
2019-05-07,13:15:00,DRY,3.50,15.85,30.5,776.00,1147.3
2019-05-07,13:20:00,DRY,1.80,15.43,30.3,776.00,1143.2
2019-05-07,13:25:00,DRY,1.55,15.90,30.5,776.00,1145.8
2019-05-07,13:30:00,DRY,2.40,15.70,32.0,776.00,1143.2
2019-05-07,13:35:00,DRY,1.70,17.00,31.0,776.00,1143.0
2019-05-07,13:40:00,DRY,2.07,17.03,28.3,776.00,1144.8
2019-05-07,13:45:00,DRY,2.85,16.90,23.0,776.00,1141.8
2019-05-07,13:50:00,DRY,2.27,17.00,30.0,776.00,1138.3
2019-05-07,13:55:00,DRY,2.30,16.45,32.5,776.00,1130.8
2019-05-07,14:00:00,DRY,1.63,16.73,28.0,776.00,1130.4
2019-05-07,14:05:00,DRY,2.05,17.10,19.5,776.00,1126.7
2019-05-07,14:10:00,DRY,2.07,17.13,30.0,776.00,1121.7
2019-05-07,14:15:00,DRY,2.25,16.80,30.0,776.00,1112.8
2019-05-07,14:20:00,DRY,1.77,16.90,27.0,776.00,1108.5
2019-05-07,14:25:00,DRY,2.05,16.50,31.0,776.00,1100.6
2019-05-07,14:30:00,DRY,2.50,16.90,32.0,776.00,1094.8
2019-05-07,14:35:00,DRY,2.85,16.55,33.0,776.00,1086.8
2019-05-07,14:40:00,DRY,1.83,15.93,31.0,776.00,1080.0
2019-05-07,14:45:00,DRY,3.00,16.95,30.5,776.00,1068.1
2019-05-07,14:50:00,DRY,2.67,16.83,26.0,776.00,1058.7
2019-05-07,14:55:00,DRY,1.20,17.05,17.5,776.00,1049.2
2019-05-07,15:00:00,DRY,2.10,16.80,29.7,776.00,1039.0
2019-05-07,15:05:00,DRY,2.25,16.90,26.5,776.00,1027.8
2019-05-07,15:10:00,DRY,2.57,16.37,27.3,776.00,1017.9
2019-05-07,15:15:00,DRY,2.70,17.70,28.5,776.00,1007.5
2019-05-07,15:20:00,DRY,1.80,17.63,25.7,776.00,995.4
2019-05-07,15:25:00,DRY,1.95,17.30,22.5,776.00,981.9
2019-05-07,15:30:00,DRY,2.10,17.40,25.7,776.00,968.5
2019-05-07,15:35:00,DRY,2.15,16.70,28.0,776.00,956.0
2019-05-07,15:40:00,DRY,1.90,17.33,23.3,776.00,940.9
2019-05-07,15:45:00,DRY,2.50,17.20,21.5,776.00,929.0
2019-05-07,15:50:00,DRY,2.13,17.07,19.3,776.00,915.0
2019-05-07,15:55:00,DRY,2.85,17.25,20.0,776.00,898.5
2019-05-07,16:00:00,DRY,2.60,17.40,28.0,776.00,882.1
2019-05-07,16:05:00,DRY,1.15,17.00,26.0,776.00,869.1
2019-05-07,16:10:00,DRY,1.57,16.97,26.0,776.00,853.5
2019-05-07,16:15:00,DRY,1.80,17.15,26.0,776.00,835.7
2019-05-07,16:20:00,DRY,2.90,16.77,27.0,776.00,819.0
2019-05-07,16:25:00,DRY,3.00,16.65,27.5,776.00,802.8
2019-05-07,16:30:00,DRY,2.00,16.57,27.0,776.00,785.7
2019-05-07,16:35:00,DRY,1.70,17.00,25.0,776.00,768.3
2019-05-07,16:40:00,DRY,1.70,16.93,26.3,776.00,751.4
2019-05-07,16:45:00,DRY,0.95,17.25,25.5,776.00,731.2
2019-05-07,16:50:00,DRY,1.23,17.20,22.0,776.00,713.9
2019-05-07,16:55:00,DRY,1.60,17.25,27.0,776.00,694.8
2019-05-07,17:00:00,DRY,1.43,17.07,25.7,776.00,676.5
2019-05-07,17:05:00,DRY,2.65,16.95,24.5,776.00,655.5
2019-05-07,17:10:00,DRY,2.10,16.40,27.0,776.00,639.0
2019-05-07,17:15:00,DRY,1.40,16.60,26.5,776.00,618.3
2019-05-07,17:20:00,DRY,1.53,16.63,26.3,776.00,595.8
2019-05-07,17:25:00,DRY,3.00,16.75,26.0,776.00,576.0
2019-05-07,17:30:00,DRY,1.40,16.57,26.0,776.00,555.2
2019-05-07,17:35:00,DRY,1.35,16.70,23.5,776.00,536.0
2019-05-07,17:40:00,DRY,2.13,16.73,23.0,776.00,514.0
2019-05-07,17:45:00,DRY,1.15,16.55,20.5,776.00,494.9
2019-05-07,17:50:00,DRY,1.90,16.70,21.7,776.00,472.0
2019-05-07,17:55:00,DRY,1.90,16.40,20.0,776.00,452.2
2019-05-07,18:00:00,DRY,1.70,15.97,18.0,776.00,429.9
2019-05-07,18:05:00,DRY,1.50,16.65,17.0,776.00,407.9
2019-05-07,18:10:00,DRY,1.30,16.33,19.3,776.00,385.6
2019-05-07,18:15:00,DRY,2.15,16.70,17.0,776.00,364.1
2019-05-07,18:20:00,DRY,2.80,16.13,19.7,776.00,342.0
2019-05-07,18:25:00,DRY,2.35,15.90,20.0,776.00,319.1
2019-05-07,18:30:00,DRY,1.80,15.90,16.0,776.00,298.9
2019-05-07,18:35:00,DRY,2.10,15.95,11.5,776.00,277.9
2019-05-07,18:40:00,DRY,1.90,15.73,12.0,776.00,255.9
2019-05-07,18:45:00,DRY,1.15,15.70,12.5,776.00,235.2
2019-05-07,18:50:00,DRY,1.87,15.83,12.0,776.00,213.5
2019-05-07,18:55:00,DRY,0.90,15.65,13.0,776.00,194.7
2019-05-07,19:00:00,DRY,1.70,15.47,13.0,776.00,173.7
2019-05-07,19:05:00,DRY,1.45,15.15,16.0,776.00,155.3
2019-05-07,19:10:00,DRY,1.83,15.20,16.3,776.00,135.1
2019-05-07,19:15:00,DRY,1.85,14.95,16.0,776.00,111.7
2019-05-07,19:20:00,DRY,2.33,14.87,14.3,776.00,87.0
2019-05-07,19:25:00,DRY,2.90,14.60,14.5,776.00,64.0
2019-05-07,19:30:00,DRY,2.67,14.37,11.7,776.00,46.4
2019-05-07,19:35:00,DRY,2.00,14.15,11.0,776.00,32.0
2019-05-07,19:40:00,DRY,2.63,13.90,11.7,776.00,20.5
2019-05-07,19:45:00,DRY,1.60,13.60,13.0,776.00,14.1
2019-05-07,19:50:00,DRY,1.87,13.30,10.0,776.00,10.0
2019-05-07,19:55:00,DRY,3.10,13.05,9.5,776.00,6.1
2019-05-07,20:00:00,DRY,2.63,12.87,9.3,776.00,3.4
2019-05-07,20:05:00,DRY,2.55,12.80,8.5,776.00,2.5
2019-05-07,20:10:00,DRY,3.17,12.67,9.0,776.67,1.1
2019-05-07,20:15:00,DRY,2.90,12.30,10.0,777.00,1.5
2019-05-07,20:20:00,DRY,2.70,12.00,10.0,777.00,0.8
2019-05-07,20:25:00,DRY,1.75,11.90,8.5,777.00,2.0
2019-05-07,20:30:00,DRY,1.43,12.00,8.0,777.00,0.9
2019-05-07,20:35:00,DRY,1.95,12.15,8.0,777.00,1.0
2019-05-07,20:40:00,DRY,1.87,12.23,7.7,777.00,1.1
2019-05-07,20:45:00,DRY,3.35,12.45,7.0,777.00,1.4
2019-05-07,20:50:00,DRY,2.77,12.70,6.3,777.00,0.8
2019-05-07,20:55:00,DRY,3.30,12.95,5.0,777.00,1.5
2019-05-07,21:00:00,DRY,2.57,12.93,5.7,777.00,1.7
2019-05-07,21:05:00,DRY,2.75,12.75,6.0,777.00,1.2
2019-05-07,21:10:00,DRY,2.70,12.60,6.0,777.00,1.2
2019-05-07,21:15:00,DRY,2.35,12.50,6.5,777.00,1.3
2019-05-07,21:20:00,DRY,2.63,12.40,7.0,777.00,1.4
2019-05-07,21:25:00,DRY,2.50,12.40,6.5,777.00,1.4
2019-05-07,21:30:00,DRY,3.20,12.53,6.0,777.00,2.1
2019-05-07,21:35:00,DRY,3.35,12.80,5.5,777.00,1.4
2019-05-07,21:40:00,DRY,3.60,13.13,5.0,777.00,2.1
2019-05-07,21:45:00,DRY,3.45,13.20,5.5,777.00,0.5
2019-05-07,21:50:00,DRY,3.57,12.80,6.3,777.00,1.5
2019-05-07,21:55:00,DRY,3.75,12.90,6.0,777.00,1.1
2019-05-07,22:00:00,DRY,3.70,12.83,6.7,777.00,1.3
2019-05-07,22:05:00,DRY,4.05,13.15,5.5,777.00,1.4
2019-05-07,22:10:00,DRY,3.53,13.03,5.3,777.00,1.2
2019-05-07,22:15:00,DRY,4.25,13.30,5.0,777.00,1.5
2019-05-07,22:20:00,DRY,4.07,13.33,4.7,777.00,1.0
2019-05-07,22:25:00,DRY,3.50,13.35,4.5,777.00,0.8
2019-05-07,22:30:00,DRY,3.47,13.27,5.0,777.00,1.0
2019-05-07,22:35:00,DRY,4.85,13.30,4.5,777.00,1.2
2019-05-07,22:40:00,DRY,4.37,13.27,5.0,777.00,1.4
2019-05-07,22:45:00,DRY,3.60,13.25,4.5,777.00,1.2
2019-05-07,22:50:00,DRY,4.37,13.20,4.7,777.00,1.3
2019-05-07,22:55:00,DRY,3.80,13.15,5.0,777.00,1.2
2019-05-07,23:00:00,DRY,4.40,12.97,5.0,777.00,1.1
2019-05-07,23:05:00,DRY,3.75,13.00,5.0,777.00,1.0
2019-05-07,23:10:00,DRY,3.80,12.97,5.0,777.00,1.4
2019-05-07,23:15:00,DRY,3.25,12.85,5.0,777.00,1.4
2019-05-07,23:20:00,DRY,3.57,12.67,5.0,777.00,2.2
2019-05-07,23:25:00,DRY,3.15,12.60,5.5,777.00,1.2
2019-05-07,23:30:00,DRY,4.20,12.57,5.0,777.00,2.4
2019-05-07,23:35:00,DRY,3.50,12.65,5.0,777.00,2.1
2019-05-07,23:40:00,DRY,4.40,12.80,5.0,777.00,1.4
2019-05-07,23:45:00,DRY,3.75,12.70,5.0,777.00,0.9
2019-05-07,23:50:00,DRY,3.90,12.53,5.3,777.00,1.5
2019-05-07,23:55:00,DRY,3.25,12.50,5.5,777.00,1.0
2019-05-08,00:00:00,DRY,3.70,12.47,5.7,777.00,1.4
2019-05-08,00:05:00,DRY,3.30,12.45,6.0,777.00,1.2
2019-05-08,00:10:00,DRY,3.53,12.23,6.0,777.00,1.1
2019-05-08,00:15:00,DRY,2.65,12.10,6.0,777.00,1.6
2019-05-08,00:20:00,DRY,3.20,11.97,6.0,777.00,1.4
2019-05-08,00:25:00,DRY,3.95,11.70,7.0,777.00,1.1
2019-05-08,00:30:00,DRY,4.33,11.80,6.7,777.00,1.3
2019-05-08,00:35:00,DRY,2.95,12.15,6.0,777.00,1.2
2019-05-08,00:40:00,DRY,3.93,12.27,6.0,777.00,1.5
2019-05-08,00:45:00,DRY,4.40,12.50,5.5,777.00,1.4
2019-05-08,00:50:00,DRY,3.70,12.53,5.0,777.00,1.0
2019-05-08,00:55:00,DRY,4.80,12.55,5.0,777.00,1.5
2019-05-08,01:00:00,DRY,4.30,12.55,5.0,777.00,1.2
2019-05-08,01:05:00,DRY,4.60,12.60,5.0,777.00,1.1
2019-05-08,01:10:00,DRY,4.40,12.53,5.0,776.33,1.9
2019-05-08,01:15:00,DRY,4.15,12.65,5.0,776.00,1.4
2019-05-08,01:20:00,DRY,4.23,12.57,5.0,776.00,1.0
2019-05-08,01:25:00,DRY,4.70,12.50,5.0,776.00,1.2
2019-05-08,01:30:00,DRY,5.37,12.27,6.0,776.00,1.3
2019-05-08,01:35:00,DRY,4.90,12.15,6.0,776.00,1.2
2019-05-08,01:40:00,DRY,3.90,12.07,6.0,776.00,1.2
2019-05-08,01:45:00,DRY,3.70,12.15,6.0,776.00,1.3
2019-05-08,01:50:00,DRY,2.87,12.03,6.0,776.00,0.9
2019-05-08,01:55:00,DRY,3.75,12.05,6.0,776.00,1.8
2019-05-08,02:00:00,DRY,3.90,11.90,6.0,776.00,1.5
2019-05-08,02:05:00,DRY,2.90,12.00,6.0,776.00,0.5
2019-05-08,02:10:00,DRY,4.10,11.97,6.0,776.00,0.9
2019-05-08,02:15:00,DRY,4.95,12.05,6.0,776.00,1.5
2019-05-08,02:20:00,DRY,3.33,12.07,6.0,776.00,0.9
2019-05-08,02:25:00,DRY,4.35,12.00,6.0,776.00,1.4
2019-05-08,02:30:00,DRY,4.03,12.00,6.0,776.00,0.8
2019-05-08,02:35:00,DRY,4.70,11.95,6.0,776.00,1.1
2019-05-08,02:40:00,DRY,3.93,11.83,6.0,776.00,1.1
2019-05-08,02:45:00,DRY,4.35,11.75,6.0,776.00,2.2
2019-05-08,02:50:00,DRY,3.47,11.70,6.7,776.00,1.7
2019-05-08,02:55:00,DRY,3.25,11.80,6.0,776.00,0.8
2019-05-08,03:00:00,DRY,4.20,11.87,6.0,776.00,1.4
2019-05-08,03:05:00,DRY,2.85,11.90,7.0,776.00,1.5
2019-05-08,03:10:00,DRY,3.73,11.77,6.7,776.00,1.8
2019-05-08,03:15:00,DRY,5.85,11.80,6.0,776.00,2.0
2019-05-08,03:20:00,DRY,4.70,11.70,6.7,776.00,1.5
2019-05-08,03:25:00,DRY,3.75,11.75,6.0,775.50,1.4
2019-05-08,03:30:00,DRY,4.73,11.83,6.0,776.00,0.9
2019-05-08,03:35:00,DRY,3.50,11.90,6.0,775.50,1.1
2019-05-08,03:40:00,DRY,4.80,11.90,6.0,776.00,1.0
2019-05-08,03:45:00,DRY,5.65,12.00,6.0,775.00,1.1
2019-05-08,03:50:00,DRY,3.97,11.87,6.0,775.33,1.1
2019-05-08,03:55:00,DRY,4.15,11.85,6.0,775.00,1.4
2019-05-08,04:00:00,DRY,4.20,11.87,6.0,775.67,0.9
2019-05-08,04:05:00,DRY,4.05,11.90,5.5,775.50,0.7
2019-05-08,04:10:00,DRY,3.47,11.93,5.0,775.67,1.1
2019-05-08,04:15:00,DRY,5.15,11.95,5.0,775.50,1.4
2019-05-08,04:20:00,DRY,5.33,12.03,5.0,775.67,1.1
2019-05-08,04:25:00,DRY,4.00,12.00,5.5,776.00,1.1
2019-05-08,04:30:00,DRY,5.20,12.03,5.3,776.00,1.4
2019-05-08,04:35:00,DRY,4.40,11.85,6.0,776.00,1.1
2019-05-08,04:40:00,DRY,4.00,11.90,6.0,776.00,1.3
2019-05-08,04:45:00,DRY,4.15,11.85,6.0,776.00,1.1
2019-05-08,04:50:00,DRY,3.87,11.77,6.0,775.67,1.7
2019-05-08,04:55:00,DRY,5.95,11.70,6.0,775.50,1.5
2019-05-08,05:00:00,DRY,4.00,11.70,6.0,775.67,1.5
2019-05-08,05:05:00,DRY,4.45,11.65,6.0,776.00,1.4
2019-05-08,05:10:00,DRY,5.43,11.60,6.0,775.33,0.9
2019-05-08,05:15:00,DRY,3.60,11.70,6.0,776.00,0.8
2019-05-08,05:20:00,DRY,4.90,11.70,6.0,775.00,1.7
2019-05-08,05:25:00,DRY,3.65,11.60,6.0,775.50,1.2
2019-05-08,05:30:00,DRY,4.43,11.60,6.0,775.33,1.3
2019-05-08,05:35:00,DRY,4.30,11.50,6.0,776.00,0.9
2019-05-08,05:40:00,DRY,4.17,11.57,6.0,775.67,1.2
2019-05-08,05:45:00,DRY,5.15,11.65,6.0,775.50,1.2
2019-05-08,05:50:00,DRY,5.93,11.53,6.0,776.00,0.7
2019-05-08,05:55:00,DRY,4.55,11.50,6.0,775.50,2.3
2019-05-08,06:00:00,DRY,5.60,11.47,6.0,776.00,1.2
2019-05-08,06:05:00,DRY,4.10,11.45,6.0,776.00,1.8
2019-05-08,06:10:00,DRY,3.70,11.43,6.0,776.00,1.8
2019-05-08,06:15:00,DRY,3.05,11.45,6.0,776.00,2.9
2019-05-08,06:20:00,DRY,4.67,11.40,6.0,776.00,4.8
2019-05-08,06:25:00,DRY,3.40,11.45,6.0,776.00,7.2
2019-05-08,06:30:00,DRY,2.20,11.53,6.0,776.00,13.2
2019-05-08,06:35:00,DRY,1.90,11.65,6.0,776.00,33.4
2019-05-08,06:40:00,DRY,4.17,11.77,5.0,776.00,53.2
2019-05-08,06:45:00,DRY,3.45,12.00,4.5,776.00,74.9
2019-05-08,06:50:00,DRY,3.73,12.20,4.7,776.00,99.4
2019-05-08,06:55:00,DRY,4.55,12.35,4.5,776.00,120.9
2019-05-08,07:00:00,DRY,3.10,12.53,4.0,776.00,140.5
2019-05-08,07:05:00,DRY,4.60,12.60,4.0,776.00,160.4
2019-05-08,07:10:00,DRY,3.50,12.57,4.0,776.00,181.1
2019-05-08,07:15:00,DRY,5.00,12.60,4.5,776.00,202.4
2019-05-08,07:20:00,DRY,5.77,12.50,4.0,776.00,224.0
2019-05-08,07:25:00,DRY,3.20,12.50,5.0,776.00,245.7
2019-05-08,07:30:00,DRY,4.63,12.37,5.0,776.00,267.7
2019-05-08,07:35:00,DRY,5.40,12.30,5.0,776.00,290.1
2019-05-08,07:40:00,DRY,3.70,12.17,6.0,776.00,312.2
2019-05-08,07:45:00,DRY,4.70,12.10,6.0,776.00,334.1
2019-05-08,07:50:00,DRY,3.33,12.13,6.0,776.00,356.5
2019-05-08,07:55:00,DRY,4.30,12.30,6.0,776.00,379.4
2019-05-08,08:00:00,DRY,4.97,12.33,6.0,776.00,401.2
2019-05-08,08:05:00,DRY,3.40,12.40,6.0,776.00,424.1
2019-05-08,08:10:00,DRY,4.50,12.50,6.0,776.00,446.0
2019-05-08,08:15:00,DRY,4.70,12.65,5.5,776.00,466.5
2019-05-08,08:20:00,DRY,4.63,12.80,5.7,776.00,488.6
2019-05-08,08:25:00,DRY,5.95,13.00,5.0,776.00,509.8
2019-05-08,08:30:00,DRY,5.07,13.13,5.0,776.00,531.5
2019-05-08,08:35:00,DRY,3.85,13.25,5.5,776.00,552.9
2019-05-08,08:40:00,DRY,4.37,13.30,5.7,776.00,572.4
2019-05-08,08:45:00,DRY,4.40,13.35,5.0,776.00,592.8
2019-05-08,08:50:00,DRY,4.40,13.47,5.7,776.00,613.6
2019-05-08,08:55:00,DRY,5.20,13.60,5.5,776.00,633.6
2019-05-08,09:00:00,DRY,5.27,13.63,5.7,776.00,653.3
2019-05-08,09:05:00,DRY,3.80,13.85,6.0,776.00,672.2
2019-05-08,09:10:00,DRY,4.00,13.97,5.7,776.00,691.2
2019-05-08,09:15:00,DRY,4.70,14.00,6.0,776.00,710.1
2019-05-08,09:20:00,DRY,5.87,14.10,5.7,776.00,727.9
2019-05-08,09:25:00,DRY,2.45,14.40,5.5,776.00,745.2
2019-05-08,09:30:00,DRY,3.00,14.53,6.0,776.00,762.3
2019-05-08,09:35:00,DRY,3.80,14.55,5.5,776.50,780.4
2019-05-08,09:40:00,DRY,2.67,14.57,5.7,776.67,797.7
2019-05-08,09:45:00,DRY,1.70,14.85,6.0,777.00,814.8
2019-05-08,09:50:00,DRY,3.40,14.87,5.3,776.67,832.2
2019-05-08,09:55:00,DRY,3.00,14.90,6.0,777.00,848.0
2019-05-08,10:00:00,DRY,3.17,14.83,6.0,776.67,863.5
2019-05-08,10:05:00,DRY,1.50,14.75,6.0,777.00,878.5
2019-05-08,10:10:00,DRY,1.70,14.97,7.3,777.00,893.7
2019-05-08,10:15:00,DRY,2.95,15.00,7.0,777.00,909.0
2019-05-08,10:20:00,DRY,3.63,15.07,9.0,777.00,922.1
2019-05-08,10:25:00,DRY,1.70,15.30,8.5,777.00,934.8
2019-05-08,10:30:00,DRY,2.80,15.20,10.0,777.00,948.2
2019-05-08,10:35:00,DRY,6.15,15.20,9.0,777.00,961.4
2019-05-08,10:40:00,DRY,3.63,14.90,9.3,777.00,974.7
2019-05-08,10:45:00,DRY,3.05,15.05,10.0,777.00,986.0
2019-05-08,10:50:00,DRY,3.37,14.97,10.7,777.00,999.3
2019-05-08,10:55:00,DRY,2.00,15.25,12.0,777.00,1009.2
2019-05-08,11:00:00,DRY,3.40,15.37,16.3,777.00,1020.7
2019-05-08,11:05:00,DRY,1.65,15.50,15.0,777.00,1032.2
2019-05-08,11:10:00,DRY,4.20,15.07,17.3,777.00,1042.5
2019-05-08,11:15:00,DRY,3.05,15.05,16.0,777.00,1052.5
2019-05-08,11:20:00,DRY,2.97,15.47,13.3,777.00,1063.0
2019-05-08,11:25:00,DRY,2.75,15.65,11.0,777.00,1070.7
2019-05-08,11:30:00,DRY,2.93,15.67,14.0,777.00,1077.5
2019-05-08,11:35:00,DRY,1.60,15.80,14.0,777.00,1087.1
2019-05-08,11:40:00,DRY,3.23,15.70,16.0,777.00,1093.4
2019-05-08,11:45:00,DRY,3.45,15.90,12.0,777.00,1100.8
2019-05-08,11:50:00,DRY,3.87,15.87,14.7,777.00,1107.7
2019-05-08,11:55:00,DRY,2.15,15.75,13.5,777.00,1113.0
2019-05-08,12:00:00,DRY,4.20,15.90,14.7,777.00,1119.9
2019-05-08,12:05:00,DRY,5.60,15.90,15.0,777.00,1123.2
2019-05-08,12:10:00,DRY,5.03,16.10,15.0,777.00,1128.2
2019-05-08,12:15:00,DRY,4.05,16.20,21.0,777.00,1131.7
2019-05-08,12:20:00,DRY,4.40,15.87,18.3,777.00,1136.7
2019-05-08,12:25:00,DRY,4.25,16.10,18.0,777.00,1138.5
2019-05-08,12:30:00,DRY,3.00,16.13,16.0,777.00,1143.3
2019-05-08,12:35:00,DRY,2.10,16.20,15.0,777.00,1144.7
2019-05-08,12:40:00,DRY,2.77,16.60,23.3,777.00,1147.8
2019-05-08,12:45:00,DRY,1.50,16.70,20.5,777.00,1148.9
2019-05-08,12:50:00,DRY,2.17,16.57,21.0,777.00,1153.1
2019-05-08,12:55:00,DRY,1.70,16.65,24.5,777.00,1153.3
2019-05-08,13:00:00,DRY,2.63,16.93,25.7,777.00,1156.7
2019-05-08,13:05:00,DRY,2.50,16.65,21.0,777.00,1152.6
2019-05-08,13:10:00,DRY,2.87,16.40,23.0,777.00,1154.3
2019-05-08,13:15:00,DRY,3.10,16.85,24.5,777.00,1151.7
2019-05-08,13:20:00,DRY,2.90,16.63,28.7,777.00,1150.6
2019-05-08,13:25:00,DRY,2.10,16.50,27.0,777.00,1149.1
2019-05-08,13:30:00,DRY,4.70,16.30,31.0,776.00,1145.4
2019-05-08,13:35:00,DRY,2.60,16.10,39.0,777.00,1144.1
2019-05-08,13:40:00,DRY,2.70,16.33,32.3,777.00,1142.4
2019-05-08,13:45:00,DRY,5.20,16.20,30.0,777.00,1139.5
2019-05-08,13:50:00,DRY,2.87,16.07,30.7,777.00,1137.3
2019-05-08,13:55:00,DRY,3.55,16.30,28.5,777.00,1134.8
2019-05-08,14:00:00,DRY,3.87,16.10,28.7,776.67,1128.3
2019-05-08,14:05:00,DRY,2.70,16.35,26.5,777.00,1125.2
2019-05-08,14:10:00,DRY,2.97,16.23,31.0,777.00,1117.4
2019-05-08,14:15:00,DRY,3.85,16.10,30.0,776.00,1115.2
2019-05-08,14:20:00,DRY,3.10,16.17,31.7,776.33,1106.0
2019-05-08,14:25:00,DRY,3.15,16.30,21.0,776.00,1103.4
2019-05-08,14:30:00,DRY,2.20,16.63,29.7,776.67,1091.8
2019-05-08,14:35:00,DRY,4.00,15.90,26.5,776.00,1087.6
2019-05-08,14:40:00,DRY,1.77,16.40,27.7,776.00,1078.7
2019-05-08,14:45:00,DRY,1.95,17.05,35.0,776.00,1071.5
2019-05-08,14:50:00,DRY,1.63,16.53,30.7,776.00,1061.0
2019-05-08,14:55:00,DRY,1.95,16.90,22.5,776.00,1052.5
2019-05-08,15:00:00,DRY,3.40,16.30,23.3,776.00,1041.5
2019-05-08,15:05:00,DRY,2.05,16.25,27.0,776.00,1031.8
2019-05-08,15:10:00,DRY,2.27,16.47,22.3,776.00,1017.5
2019-05-08,15:15:00,DRY,2.90,16.75,16.5,776.00,1010.6
2019-05-08,15:20:00,DRY,3.27,16.63,18.0,776.00,998.1
2019-05-08,15:25:00,DRY,1.05,16.85,16.0,776.00,985.2
2019-05-08,15:30:00,DRY,3.43,17.00,17.0,776.00,969.9
2019-05-08,15:35:00,DRY,4.30,16.80,11.0,776.00,957.7
2019-05-08,15:40:00,DRY,3.67,16.57,15.3,776.00,946.1
2019-05-08,15:45:00,DRY,2.35,16.85,15.0,776.00,930.8